Morgantown, WV

1:51 PM EDT on September 24, 2017 (GMT -0400)
Morgantown Municipal-Hart

Weather History for KMGW - December, 2012

Change the Weather History Date:

Wednesday, December 5, 2012

  Actual Average Record
Temperature  
Mean Temperature 39 °F 38 °F  
Max Temperature 49 °F 45 °F 75 °F (1982)
Min Temperature 29 °F 30 °F 11 °F (1974)
Degree Days  
Heating Degree Days 26 27  
Month to date heating degree days 65 133  
Since 1 July heating degree days 1186 1181  
Cooling Degree Days 0 0  
Month to date cooling degree days 0 0  
Year to date cooling degree days 1141 814  
Moisture  
Dew Point 36 °F    
Average Humidity 75    
Maximum Humidity 100    
Minimum Humidity 50    
Precipitation  
Precipitation 0.05 in 0.10 in 1.10 in (2013)
Month to date precipitation 0.53 0.51  
Year to date precipitation 31.00 39.43  
Sea Level Pressure  
Sea Level Pressure 30.25 in    
Wind  
Wind Speed 5 mph (NW)    
Max Wind Speed 15 mph    
Max Gust Speed 21 mph    
Visibility 7 miles    
Events Fog , Rain    
T = Trace of Precipitation, MM = Missing Value Source: NWS Daily Summary

Daily Weather History Graph

Daily Weather History Graph

Search for Another Location

Airport or City:

Trip Planner

Search our weather history database for the weather conditions in past years. The results will help you decide how hot, cold, wet, or windy it might be!

Date:

Astronomy

Dec. 05, 2012 Rise Set
Actual Time 7:25 AM EST 4:55 PM EST
Civil Twilight 6:55 AM EST 5:25 PM EST
Nautical Twilight 6:21 AM EST 5:58 PM EST
Astronomical Twilight 5:49 AM EST 6:31 PM EST
Moon 11:42 PM EST (12/5) 11:49 AM EST (12/5)
Length of Visible Light 10h 29m
Length of Day
9h 29m
Waning Gibbous, 60% of the Moon is Illuminated
Dec 5
Waning Gibbous
Dec 6
Last Quarter
Dec 13
New
Dec 20
First Quarter
Dec 28
Full

Hourly Weather History & Observations

Time (EST) Temp. Windchill Dew Point Humidity Pressure Visibility Wind Dir Wind Speed Gust Speed Precip Events Conditions
12:04 AM 46.4 °F - 44.6 °F 93% 30.15 in 5.0 mi Calm Calm - 0.01 in Rain Light Rain
12:27 AM 46.4 °F - 44.6 °F 93% 30.15 in 6.0 mi Calm Calm - 0.02 in Rain Light Rain
12:53 AM 46.9 °F - 45.0 °F 93% 30.16 in 7.0 mi Calm Calm - 0.04 in Rain Light Rain
1:53 AM 46.9 °F - 42.1 °F 83% 30.16 in 10.0 mi Calm Calm - 0.01 in   Mostly Cloudy
2:53 AM 46.0 °F - 42.1 °F 86% 30.18 in 10.0 mi Calm Calm - N/A   Clear
3:53 AM 43.0 °F - 42.1 °F 97% 30.20 in 2.5 mi Calm Calm - N/A   Clear
3:55 AM 42.8 °F - 42.8 °F 100% 30.19 in 1.8 mi Calm Calm - N/A   Partly Cloudy
4:04 AM 42.8 °F 41.1 °F 42.8 °F 100% 30.19 in 3.0 mi South 3.5 mph - N/A   Clear
4:17 AM 42.8 °F - 41.0 °F 93% 30.19 in 1.8 mi Calm Calm - N/A   Partly Cloudy
4:19 AM 42.8 °F 41.1 °F 41.0 °F 93% 30.19 in 0.8 mi South 3.5 mph - N/A   Mist
4:30 AM 42.8 °F - 41.0 °F 93% 30.19 in 1.2 mi Calm Calm - N/A   Partly Cloudy
4:35 AM 42.8 °F 41.1 °F 41.0 °F 93% 30.19 in 3.0 mi SSW 3.5 mph - N/A   Partly Cloudy
4:53 AM 43.0 °F - 41.0 °F 93% 30.20 in 10.0 mi Calm Calm - N/A   Clear
5:46 AM 41.0 °F - 39.2 °F 93% 30.20 in 1.8 mi Calm Calm - N/A   Partly Cloudy
5:50 AM 41.0 °F - 39.2 °F 93% 30.21 in 0.8 mi Calm Calm - N/A   Mist
5:53 AM 41.0 °F 39.0 °F 39.9 °F 96% 30.22 in 0.5 mi South 3.5 mph - N/A Fog Fog
6:07 AM 39.2 °F - 39.2 °F 100% 30.21 in 1.2 mi Calm Calm - N/A   Scattered Clouds
6:10 AM 39.2 °F - 39.2 °F 100% 30.21 in 3.0 mi Calm Calm - N/A   Scattered Clouds
6:53 AM 41.0 °F 38.0 °F 39.9 °F 96% 30.24 in 10.0 mi SSW 4.6 mph - N/A   Clear
7:22 AM 39.2 °F - 39.2 °F 100% 30.23 in 7.0 mi Calm Calm - 0.01 in   Mostly Cloudy
7:53 AM 41.0 °F 38.0 °F 39.9 °F 96% 30.24 in 8.0 mi SSW 4.6 mph - 0.01 in   Overcast
9:53 AM 44.1 °F 40.8 °F 39.0 °F 82% 30.27 in 9.0 mi West 5.8 mph - N/A   Overcast
10:49 AM 44.6 °F 40.2 °F 37.4 °F 76% 30.27 in 10.0 mi West 8.1 mph - N/A   Mostly Cloudy
10:53 AM 45.0 °F 41.2 °F 36.0 °F 71% 30.29 in 10.0 mi WNW 6.9 mph - N/A   Mostly Cloudy
11:53 AM 46.9 °F - 36.0 °F 66% 30.27 in 10.0 mi Variable 5.8 mph - N/A   Mostly Cloudy
12:28 PM 46.4 °F 42.9 °F 33.8 °F 62% 30.25 in 10.0 mi NW 6.9 mph - N/A   Scattered Clouds
12:35 PM 48.2 °F - 35.6 °F 62% 30.25 in 10.0 mi NW 5.8 mph - N/A   Mostly Cloudy
12:43 PM 46.4 °F 41.9 °F 33.8 °F 62% 30.25 in 10.0 mi West 9.2 mph - N/A   Scattered Clouds
12:53 PM 48.0 °F - 35.1 °F 61% 30.26 in 10.0 mi NW 5.8 mph - N/A   Mostly Cloudy
1:11 PM 46.4 °F 43.5 °F 33.8 °F 62% 30.25 in 10.0 mi NW 5.8 mph - N/A   Scattered Clouds
1:53 PM 48.0 °F - 30.9 °F 52% 30.26 in 10.0 mi NNW 6.9 mph - N/A   Mostly Cloudy
2:53 PM 46.0 °F 41.9 °F 30.9 °F 56% 30.27 in 10.0 mi NNW 8.1 mph - N/A   Mostly Cloudy
3:53 PM 44.1 °F 38.6 °F 30.0 °F 58% 30.29 in 10.0 mi North 10.4 mph - N/A   Scattered Clouds
4:53 PM 42.1 °F 35.7 °F 28.0 °F 58% 30.31 in 10.0 mi NNW 11.5 mph - N/A   Scattered Clouds
5:53 PM 39.0 °F 32.8 °F 27.0 °F 62% 30.34 in 10.0 mi NNW 9.2 mph - N/A   Overcast
6:53 PM 35.1 °F 26.9 °F 25.0 °F 67% 30.37 in 10.0 mi North 11.5 mph - N/A   Clear
7:53 PM 33.1 °F 27.7 °F 23.0 °F 66% 30.37 in 10.0 mi North 5.8 mph - N/A   Clear
8:53 PM 32.0 °F 27.5 °F 21.9 °F 66% 30.37 in 10.0 mi NNE 4.6 mph - N/A   Clear
9:53 PM 30.0 °F 25.2 °F 21.9 °F 72% 30.36 in 10.0 mi North 4.6 mph - N/A   Clear
10:53 PM 30.0 °F 26.5 °F 21.9 °F 72% 30.35 in 10.0 mi NE 3.5 mph - N/A   Clear
11:53 PM 30.9 °F - 21.9 °F 69% 30.35 in 10.0 mi Calm Calm - N/A   Clear